Location: Izdebno
(52.6670°N, 16.2170°E)
Time: 11:03:59
(UTC+01:00)

Transit 2A - Pass Details

Date: 29 January 2023
Orbit: 591 x 964 km, 66.7° (Epoch: 21 March)

Event Time Altitude Azimuth Distance (km) Brightness Sun altitude
Rises 16:53:07 0° 156° (SSE) 2,986 9.1 -3.3°
Reaches altitude 10° 16:56:35 10° 129° (SE) 2,156 8.1 -3.8°
Maximum altitude 16:58:45 13° 102° (ESE) 2,014 7.7 -4.1°
Drops below altitude 10° 17:01:00 10° 76° (ENE) 2,270 7.8 -4.4°
Enters shadow 17:02:52 - 61° (ENE) 2,711 8.1 -4.7°
Sets 17:04:50 0° 50° (NE) 3,298 - -5.0°
